FUNCUBE-1 (AO-73)

Last updated on Thu Oct 30 2025 00:03:10 GMT+0000 (Coordinated Universal Time)

1 39444U 13066AE 25302.45394008 .00013572 00000+0 94742-3 0 9991 2 39444 97.7997 265.2395 0037849 267.5275 92.1618 15.04895957644904
UTC large
Height (km)
Speed (km/s)
/
Latitude / Longitude
Inclination (degrees)
Orbital Period (minutes)
Azimuth
Elevation
Range (km)
Doppler Factor

Next 0 passes for location: London (51.5072 / 0.1276)

Sorry there are no passes over London.